Location: ???????
(55.4362°N, 38.1183°E)
Time: 13:50:47
(UTC+00:00)

Oscar 11 - Pass Details

Date: 11 December 2021
Orbit: 611 x 625 km, 97.6° (Epoch: 25 January)

Event Time Altitude Azimuth Distance (km) Brightness Sun altitude
Rises 02:01:39 0° 22° (NNE) 2,919 10.8 -29.9°
Reaches altitude 10° 02:04:14 10° 37° (NE) 2,004 10.1 -29.5°
Maximum altitude 02:07:46 24° 91° (E) 1,302 9.3 -29.0°
Drops below altitude 10° 02:11:17 10° 146° (SE) 1,984 10.0 -28.5°
Sets 02:13:49 0° 160° (SSE) 2,881 10.7 -28.2°
